Flag for France

Past Weather in Orléans, Centre-Val de Loire, France — Yesterday and Last 2 Weeks

Now
55 °F

Light rain. Partly cloudy.


Feels Like: 52 °F
Forecast: 57 / 48 °F
Wind: 14 mph from Southwest

Location: Orleans Airport
Current Time: Sep 24, 2020 at 8:43:41 pm
Latest Report: Sep 24, 2020 at 8:00 pm
Visibility: N/A
Pressure29.53 "Hg
Humidity: 88%
Dew Point: 52 °F
Location of OrléansLocation

Past Weather in Orléans — Graph

°F

Orléans Temperature Yesterday

Maximum temperature yesterday: 73 °F (at 2:00 pm)
Minimum temperature yesterday: 57 °F (at 6:30 am)
Average temperature yesterday: 64 °F

High & Low Weather Summary for the Past Weeks

 TemperatureHumidityPressure
High93 °F (Sep 14, 3:30 pm)100% (Sep 19, 8:00 am)30.30 "Hg (Sep 19, 8:00 am)
Low45 °F (Sep 22, 7:30 am)18% (Sep 21, 6:00 pm)29.50 "Hg (Sep 24, 6:00 pm)
Average68 °F63%30.00 "Hg
* Reported Sep 9 7:00 pm — Sep 24 7:00 pm, Orléans. Weather by CustomWeather, © 2020

Note: Actual official high and low records may vary slightly from our data, if they occured in-between our weather recording intervals... More about our weather records

Orléans Weather History for the Previous 24 Hours

Scroll right to see more
 ConditionsComfort  
Time TempWeatherWind HumidityBarometerVisibility
7:00 pm
Thu, Sep 24
55 °FLight rain. Partly sunny.26 mph88%29.53 "Hg5 mi
6:30 pm57 °FLight rain. More clouds than sun.18 mph82%29.53 "HgN/A
6:00 pm61 °FBroken clouds.18 mph77%29.50 "HgN/A
5:30 pm61 °FCloudy.22 mph77%29.53 "HgN/A
5:00 pm63 °FOvercast.22 mph73%29.53 "HgN/A
4:30 pm61 °FSunny.16 mph83%29.56 "Hg10 mi
4:00 pm61 °FMostly cloudy.16 mph77%29.59 "HgN/A
3:30 pm61 °FSunny.17 mph77%29.59 "Hg10 mi
3:00 pm59 °FLight rain. Mostly cloudy.16 mph88%29.62 "HgN/A
2:30 pm57 °FLight rain. Cloudy.16 mph88%29.62 "HgN/A
2:00 pm57 °FLight rain. Broken clouds.15 mph88%29.65 "HgN/A
1:30 pm64 °FCloudy.20 mph64%29.62 "HgN/A
1:00 pm64 °FBroken clouds.20 mph64%29.65 "HgN/A
12:30 pm64 °FBroken clouds.20 mph68%29.65 "HgN/A
12:00 pm63 °FMostly cloudy.18 mph68%29.68 "HgN/A
11:30 am63 °FBroken clouds.16 mph73%29.68 "HgN/A
11:00 am61 °FSunny.15 mph77%29.68 "Hg10 mi
10:30 am57 °FSunny.16 mph88%29.71 "Hg10 mi
10:00 am57 °FSunny.14 mph82%29.71 "Hg10 mi
9:30 am54 °FSunny.9 mph94%29.71 "Hg10 mi
9:00 am52 °FSunny.10 mph94%29.71 "Hg10 mi
8:30 am50 °FSunny.6 mph94%29.71 "Hg10 mi
8:00 am50 °FSunny.7 mph94%29.71 "Hg10 mi
7:30 am50 °FClear.6 mph94%29.71 "Hg10 mi
7:00 am50 °FClear.8 mph94%29.74 "Hg10 mi
6:30 am50 °FClear.8 mph94%29.74 "Hg10 mi
6:00 am50 °FClear.7 mph94%29.74 "Hg10 mi
5:30 am52 °FClear.12 mph94%29.74 "Hg10 mi
5:00 am52 °FClear.9 mph94%29.74 "Hg10 mi
4:30 am52 °FClear.10 mph94%29.74 "Hg10 mi
4:00 am52 °FClear.12 mph94%29.77 "Hg10 mi
3:30 am54 °FClear.8 mph88%29.77 "Hg10 mi
2:30 am54 °FClear.10 mph88%29.74 "Hg10 mi
2:00 am55 °FClear.10 mph88%29.74 "Hg10 mi
1:30 am55 °FPassing clouds.9 mph88%29.74 "HgN/A
1:00 am55 °FPassing clouds.8 mph88%29.74 "HgN/A
12:30 am57 °FPartly cloudy.12 mph82%29.71 "HgN/A
12:00 am59 °FPassing clouds.16 mph77%29.71 "HgN/A
11:30 pm
Wed, Sep 23
61 °FPartly cloudy.17 mph83%29.68 "HgN/A
11:00 pm63 °FPassing clouds.16 mph88%29.68 "HgN/A
10:30 pm63 °FMostly cloudy.17 mph94%29.65 "HgN/A
10:00 pm63 °FMostly cloudy.12 mph88%29.65 "HgN/A
9:30 pm61 °FPartly cloudy.8 mph94%29.65 "HgN/A
9:00 pm61 °FPassing clouds.8 mph94%29.62 "HgN/A
8:30 pm61 °FLight rain. Partly cloudy.9 mph94%29.62 "Hg6 mi
8:00 pm61 °FPartly cloudy.8 mph94%29.62 "HgN/A
Weather by CustomWeather, © 2020

See weather overview